Location: Biltmore Gardens
(41.6070°N, 83.4666°W)
Time: 15:22:11
(UTC+00:00)

Cosmos 2369 - Pass Details

Date: 14 July 2020
Orbit: 838 x 857 km, 71.0° (Epoch: 13 August)

Event Time Altitude Azimuth Distance (km) Brightness Sun altitude
Rises 08:29:27 0° 329° (NNW) 3,434 7.1 -15.6°
Reaches altitude 10° 08:32:01 10° 323° (NW) 2,495 6.3 -15.3°
Maximum altitude 08:37:22 42° 254° (WSW) 1,201 4.1 -14.6°
Enters shadow 08:42:04 13° 187° (S) 2,259 5.5 -14.0°
